Location: Izdebno
(52.6670°N, 16.2170°E)
Time: 05:48:24
(UTC+02:00)

A-11 Canister half - Pass Details

Date: 15 February 2023
Orbit: 1526 x 1682 km, 47.3° (Epoch: 25 March)

Event Time Altitude Azimuth Distance (km) Brightness Sun altitude
Rises 09:49:24 0° 285° (WNW) 4,688 11.1 18.0°
Reaches altitude 10° 09:53:34 10° 269° (W) 3,714 10.8 18.4°
Maximum altitude 09:59:28 19° 229° (SW) 3,086 10.8 18.9°
Drops below altitude 10° 10:05:27 10° 189° (S) 3,764 11.9 19.4°
Sets 10:09:45 0° 173° (S) 4,773 12.8 19.8°
